Hourly Data Report for May 25, 2012

All times are specified in Local Standard Time (LST). Add 1 hour to adjust for Daylight Saving Time where and when it is observed.

YARMOUTH A
NOVA SCOTIA

43°49'37.000" N
66°05'17.000" W
42.90 m
8206495
71603
YQI

Download Data

Hourly Data (May 2012)
Hourly Data Report for May 25, 2012
Temp Definition
°C
Dew Point Temp Definition
°C
Rel Hum Definition
%
Wind Dir Definition
10's deg

Wind Spd Definition
km/h
Visibility Definition
km
Stn Press Definition
kPa
Hmdx Definition


Wind Chill Definition


Weather Definition


TIME
00:00 Legend Double Dagger 9.7 9.6 99 15 15 3.2 102.28     Fog
01:00 Legend Double Dagger 9.0 9.0 100 16 16 3.2 102.31     Fog
02:00 Legend Double Dagger 8.8 8.8 100 13 18 4.0 102.26     Drizzle,Fog
03:00 Legend Double Dagger 9.1 9.0 99 13 16 4.8 102.23     Fog
04:00 Legend Double Dagger 9.0 8.9 99 15 13 4.8 102.28     Fog
05:00 Legend Double Dagger 8.9 8.9 100 17 16 2.4 102.29     Fog
06:00 Legend Double Dagger 9.1 9.1 100 13 14 3.2 102.27     Fog
07:00 Legend Double Dagger 9.2 9.2 100 14 15 4.8 102.31     Fog
08:00 Legend Double Dagger 9.7 9.4 98 12 16 4.8 102.32     Fog
09:00 Legend Double Dagger 10.5 9.4 93 15 15 10.0 102.30     LegendNANA
10:00 Legend Double Dagger 11.8 9.7 87 14 14 10.0 102.26     LegendNANA
11:00 Legend Double Dagger 13.6 10.8 83 16 11 10.0 102.25     Mostly Cloudy
12:00 Legend Double Dagger 13.9 11.3 84 19 14 10.0 102.20     LegendNANA
13:00 Legend Double Dagger 15.3 10.7 74 20 22 10.0 102.13     LegendNANA
14:00 Legend Double Dagger 14.1 10.7 80 20 22 10.0 102.11     Mainly Clear
15:00 Legend Double Dagger 13.4 11.0 85 18 21 10.0 102.08     LegendNANA
16:00 Legend Double Dagger 12.3 10.6 89 18 17 10.0 102.08     LegendNANA
17:00 Legend Double Dagger 12.3 11.2 93 19 21 10.0 102.03     Cloudy
18:00 Legend Double Dagger 12.8 11.6 92 20 17 10.0 101.99     LegendNANA
19:00 Legend Double Dagger 12.1 11.8 98 17 10 4.8 101.94     Fog
20:00 Legend Double Dagger 11.4 11.4 100 17 14 3.2 101.87     Drizzle,Fog
21:00 Legend Double Dagger 11.9 11.9 100 18 13 4.0 101.88     Drizzle,Fog
22:00 Legend Double Dagger 12.0 11.9 99 17 14 4.8 101.84     Fog
23:00 Legend Double Dagger 12.7 12.4 98 19 18 10.0 101.76     Cloudy

Notes on Data Quality.

Legend

  • E = Estimated
  • M = Missing
  • NA = Not Available
  • ‡ = Partner data that is not subject to review by the National Climate Archives
Date modified: